DW7733 Weather Reports


Display with metric or nautical units.
time (UTC)temp
F
wind
direction
speed
MPH
gust
MPH
rain 1hr
in
rain 24hr
in
rain mn
in
humidity
%
barometer
mb
20260906183005 69 344 10.0 13.0 0.00 0.00 0.00 87 1018.6
20260906181511 69 347 9.0 13.0 0.00 0.00 0.00 87 1018.8
20260906180003 69 350 9.0 11.0 0.00 0.00 0.00 87 1018.8
20260906174501 69 340 8.0 12.0 0.00 0.00 0.00 88 1019.0
20260906173106 68 345 8.0 11.0 0.00 0.00 0.00 87 1018.9
20260906171603 69 352 7.0 9.0 0.00 0.00 0.00 88 1018.9
20260906170100 68 328 7.0 10.0 0.00 0.00 0.00 87 1019.0
20260906164557 68 344 8.0 10.0 0.00 0.00 0.00 86 1018.9
20260906163055 68 342 6.0 9.0 0.00 0.00 0.00 85 1019.0
20260906161559 68 336 6.0 8.0 0.00 0.00 0.00 86 1019.0
20260906160054 68 360 8.0 9.0 0.00 0.00 0.00 84 1018.9
20260906154551 68 12 7.0 9.0 0.00 0.00 0.00 85 1018.8
20260906153106 68 13 6.0 7.0 0.00 0.00 0.00 85 1018.9
20260906151548 68 11 7.0 8.0 0.00 0.00 0.00 83 1018.6
20260906150047 68 23 6.0 8.0 0.00 0.00 0.00 83 1018.7
20260906144548 67 26 6.0 8.0 0.00 0.00 0.00 81 1018.7
20260906143043 67 34 7.0 8.0 0.00 0.00 0.00 83 1018.6
20260906141540 67 37 6.0 9.0 0.00 0.00 0.00 84 1018.6
20260906140039 66 33 6.0 9.0 0.00 0.00 0.00 86 1018.6
20260906134534 65 39 6.0 10.0 0.00 0.00 0.00 87 1018.5
20260906133043 65 40 7.0 9.0 0.00 0.00 0.00 88 1018.5
20260906131526 63 39 2.0 4.0 0.00 0.00 0.00 89 1018.5
20260906130024 62 39 5.0 7.0 0.00 0.00 0.00 91 1018.5
20260906124523 61 51 7.0 7.0 0.00 0.00 0.00 92 1018.3
20260906123034 60 49 3.0 3.0 0.00 0.00 0.00 93 1018.0
20260906121521 60 53 0.0 5.0 0.00 0.00 0.00 94 1018.1
20260906120019 58 22 1.0 0.0 0.00 0.00 0.00 91 1017.9
20260906114523 57 136 0.0 1.0 0.00 0.00 0.00 92 1017.6
20260906113016 57 116 0.0 2.0 0.00 0.00 0.00 92 1017.5
20260906111514 57 143 0.0 1.0 0.00 0.00 0.00 92 1017.3
20260906110013 57 141 0.0 2.0 0.00 0.00 0.00 92 1017.2
20260906104511 57 129 0.0 3.0 0.00 0.00 0.00 92 1017.2
20260906103010 57 139 0.0 0.0 0.00 0.00 0.00 94 1017.2
20260906101505 58 138 0.0 0.0 0.00 0.00 0.00 94 1017.1
20260906100007 59 139 0.0 1.0 0.00 0.00 0.00 94 1017.0
20260906094501 60 139 0.0 2.0 0.00 0.00 0.00 94 1016.9
20260906093004 61 51 1.0 4.0 0.00 0.00 0.00 93 1016.7
20260906091604 61 68 2.0 6.0 0.00 0.00 0.00 94 1016.7
20260906090114 61 63 3.0 5.0 0.00 0.00 0.00 94 1016.7
20260906084609 60 101 1.0 3.0 0.00 0.00 0.00 94 1016.7
20260906083057 60 132 0.0 1.0 0.00 0.00 0.00 94 1016.5
20260906081556 61 124 0.0 3.0 0.00 0.00 0.00 94 1016.2
20260906080057 61 95 0.0 3.0 0.00 0.00 0.00 94 1016.1
20260906074559 62 91 2.0 5.0 0.00 0.00 0.00 94 1016.1
20260906073058 62 74 1.0 3.0 0.00 0.00 0.00 93 1016.0
20260906071551 62 49 2.0 3.0 0.00 0.00 0.00 93 1016.1
20260906070105 62 53 2.0 4.0 0.00 0.00 0.00 93 1016.1
20260906064550 63 32 1.0 5.0 0.00 0.00 0.00 92 1016.0
20260906063049 64 46 7.0 10.0 0.00 0.00 0.00 93 1016.1
20260906061600 63 16 5.0 7.0 0.00 0.00 0.00 94 1016.2
20260906060044 59 138 0.0 1.0 0.00 0.00 0.00 94 1016.1
20260906054542 59 139 0.0 0.0 0.00 0.00 0.00 94 1016.0
20260906053044 59 139 0.0 1.0 0.00 0.00 0.00 94 1015.8
20260906051539 60 138 0.0 1.0 0.00 0.00 0.00 93 1015.7
20260906050048 60 138 0.0 1.0 0.00 0.00 0.00 93 1015.8
20260906044536 60 138 0.0 1.0 0.00 0.00 0.00 92 1015.8
20260906043042 61 138 0.0 1.0 0.00 0.00 0.00 91 1015.8
20260906041533 62 151 0.0 1.0 0.00 0.00 0.00 90 1015.6
20260906040027 63 138 0.0 1.0 0.00 0.00 0.00 87 1015.5
20260906034528 64 139 0.0 9.0 0.00 0.00 0.00 85 1015.4
20260906033025 64 49 4.0 9.0 0.00 0.00 0.00 84 1015.3
20260906031524 65 43 4.0 10.0 0.00 0.00 0.00 83 1015.3
20260906030023 65 60 3.0 7.0 0.00 0.00 0.00 83 1015.4
20260906024522 66 118 2.0 7.0 0.00 0.00 0.00 81 1015.4
20260906023022 67 82 2.0 9.0 0.00 0.00 0.00 82 1015.5
20260906021521 68 43 10.0 12.0 0.00 0.00 0.00 84 1015.3
20260906020021 68 36 13.0 14.0 0.00 0.00 0.00 83 1015.2
20260906014526 68 36 14.0 17.0 0.00 0.00 0.00 85 1015.1
20260906013017 69 40 13.0 16.0 0.00 0.00 0.00 85 1014.9
20260906011518 69 37 15.0 17.0 0.00 0.00 0.00 81 1014.8
20260906010016 69 34 14.0 17.0 0.00 0.00 0.00 84 1014.6
20260906004515 69 26 15.0 18.0 0.00 0.00 0.00 88 1014.6
20260906003014 69 32 16.0 18.0 0.00 0.00 0.00 86 1014.8
20260906001514 68 13 14.0 19.0 0.00 0.00 0.00 88 1014.8
20260906000014 69 23 14.0 16.0 0.00 0.00 0.00 87 1014.8
20260905234512 68 15 13.0 15.0 0.00 0.00 0.00 82 1014.8
20260905233013 69 5 14.0 16.0 0.00 0.00 0.00 82 1014.8
20260905231514 69 19 14.0 16.0 0.00 0.00 0.00 79 1014.8
20260905230014 69 8 14.0 17.0 0.00 0.00 0.00 80 1014.9
20260905224509 69 348 13.0 17.0 0.00 0.00 0.00 79 1014.8
20260905223008 69 11 13.0 16.0 0.00 0.00 0.00 82 1014.7
20260905221507 69 13 13.0 16.0 0.00 0.00 0.00 78 1014.8
20260905220007 69 23 15.0 18.0 0.00 0.00 0.00 74 1014.8
20260905214507 70 26 17.0 19.0 0.00 0.00 0.00 70 1014.8
20260905213005 70 12 16.0 19.0 0.00 0.00 0.00 76 1014.7
20260905211504 70 13 16.0 19.0 0.00 0.00 0.00 75 1014.8
20260905210004 70 13 16.0 20.0 0.00 0.00 0.00 73 1014.6
20260905204503 70 23 16.0 19.0 0.00 0.00 0.00 76 1014.6
20260905203001 70 16 16.0 19.0 0.00 0.00 0.00 79 1014.5
20260905201501 70 20 14.0 17.0 0.00 0.00 0.00 81 1014.6
20260905200101 70 11 14.0 16.0 0.00 0.00 0.00 79 1014.7
20260905194559 70 330 10.0 14.0 0.00 0.00 0.00 85 1014.8
20260905193058 70 8 11.0 14.0 0.00 0.00 0.00 85 1014.7
20260905191600 70 337 11.0 12.0 0.00 0.00 0.00 84 1014.7
20260905184601 70 335 9.0 11.0 0.00 0.00 0.00 84 1015.0